Погода в Кавалезе

Италия     46°17′29″N   11°27′35″E
В апреле 2022 года жителям России запретили посещать сайт meteo.paraplan.net по решению Генеральной прокуратуры. Аудитория сайта уменьшилась в 10 раз. Владельцы сайта не видят смысла в поддержке погодного сервера в таких условиях. Сайт будет закрыт в октябре.
темп.,
°C
ветер,
м/с
пор.,
м/с
влажн.,
%
обл.,
%
осадки,
мм/ч
давл.,
гПа
погр.,
м
29 сентября, чт
чт2923:00+4вюв1198100 0.1 100028
02:00+5вюв0095100 0.2 99913
05:00+4св119793 0.0 99915
08:00+5вюв119279 0.0 99949
11:00+8ю1284100 0.5 999722
14:00+7ююв2292100 3.8 999848
17:00+6юв2396100 1.8 999286
20:00+6юв2399100 3.3 1001217
30 сентября, пт
пт3023:00+5ююв129991 1.4 100288
02:00+5сз0099100 1.9 100461
05:00+5ссз1198100 0.2 100434
08:00+5ссз1198100 2.9 1006168
11:00+5сз0197100 2.9 1008215
14:00+5юз1198100 4.0 1011187
17:00+6ююз119598 0.2 1012292
20:00+5юв009994 0.6 101444
1 октября, сб
сб123:00+5вюв0198100 0.2 101448
02:00+5всв009797 0.3 101431
05:00+5вюв009799 0.2 101525
08:00+5зюз0197100 0.2 101554
11:00+8зюз228367 0.1 1015643
14:00+9зюз2274100 0.3 1014743
17:00+9зюз127671 0.3 1013562
20:00+4с229720 0.4 101626
2 октября, вс
вс223:00+4с23977 0.0 101960
02:00+3ссв23950 0.0 102251
05:00+2ссв22850 0.0 102436
08:00+3ссв22802 0.0 102634
11:00+11зсз11483 0.0 1024702
14:00+13з224119 0.0 10221247
17:00+12з11454 0.0 1021799
20:00+5всв11754 0.0 102412
3 октября, пн
пн323:00+4св11720 0.0 102311
02:00+3св11780 0.0 102313
05:00+3св117611 0.0 102415
08:00+4св117244 0.0 102317
11:00+10зсз225157 0.0 1021751
14:00+12сз225380 0.0 10191162
17:00+10ссз236836 0.0 1019806
20:00+4ссв22942 0.0 102238